Westhampton Beach, NY

4:30 AM EDT on March 29, 2017 (GMT -0400)
The Gabreski

Weather History for KFOK - February, 2014

Change the Weather History Date:

Wednesday, February 26, 2014

  Actual Average Record
Temperature  
Mean Temperature 20 °F -  
Max Temperature 32 °F 40 °F 54 °F (2002)
Min Temperature 7 °F 23 °F 1 °F (2005)
Degree Days  
Heating Degree Days 46    
Moisture  
Dew Point 13 °F    
Average Humidity 63    
Maximum Humidity 80    
Minimum Humidity 37    
Precipitation  
Precipitation 0.00 in - - ()
Sea Level Pressure  
Sea Level Pressure 29.89 in    
Wind  
Wind Speed 6 mph (West)    
Max Wind Speed 23 mph    
Max Gust Speed 29 mph    
Visibility 7 miles    
Events Snow    
Averages and records for this station are not official NWS values.
T = Trace of Precipitation, MM = Missing Value Source: NWS Daily Summary

Daily Weather History Graph

Daily Weather History Graph

Search for Another Location

Airport or City:

Trip Planner

Search our weather history database for the weather conditions in past years. The results will help you decide how hot, cold, wet, or windy it might be!

Date:

Astronomy

Feb. 26, 2014 Rise Set
Actual Time 6:29 AM EST 5:38 PM EST
Civil Twilight 6:01 AM EST 6:05 PM EST
Nautical Twilight 5:29 AM EST 6:37 PM EST
Astronomical Twilight 4:58 AM EST 7:09 PM EST
Moon 4:13 AM EST (2/26) 2:48 PM EST (2/26)
Length of Visible Light 12h 04m
Length of Day
11h 09m
Waning Crescent, 10% of the Moon is Illuminated
Feb 26
Waning Crescent
Mar 1
New
Mar 8
First Quarter
Mar 16
Full
Mar 23
Last Quarter

Hourly Weather History & Observations

Time (EST) Temp. Windchill Dew Point Humidity Pressure Visibility Wind Dir Wind Speed Gust Speed Precip Events Conditions
12:53 AM 18.0 °F - 6.1 °F 60% 29.99 in 10.0 mi Calm Calm - N/A   Clear
1:53 AM 15.1 °F - 5.0 °F 64% 29.99 in 10.0 mi Calm Calm - N/A   Clear
2:53 AM 16.0 °F - 6.1 °F 65% 29.99 in 10.0 mi Calm Calm - N/A   Clear
3:53 AM 18.0 °F - 9.0 °F 68% 29.96 in 10.0 mi Calm Calm - N/A   Clear
4:53 AM 18.0 °F - 10.0 °F 71% 29.94 in 10.0 mi Calm Calm - N/A   Partly Cloudy
5:53 AM 19.0 °F - 10.9 °F 71% 29.93 in 10.0 mi Calm Calm - N/A   Overcast
6:53 AM 24.1 °F 18.2 °F 14.0 °F 65% 29.92 in 10.0 mi WSW 4.6 mph - N/A   Overcast
7:53 AM 27.0 °F 18.0 °F 12.0 °F 53% 29.93 in 10.0 mi West 9.2 mph - N/A   Overcast
8:53 AM 28.0 °F 18.1 °F 10.9 °F 49% 29.93 in 10.0 mi West 11.5 mph 20.7 mph N/A   Overcast
9:53 AM 27.0 °F 17.3 °F 14.0 °F 58% 29.94 in 10.0 mi West 10.4 mph 19.6 mph N/A   Overcast
10:53 AM 27.0 °F 15.6 °F 16.0 °F 63% 29.94 in 3.0 mi West 13.8 mph - 0.00 in Snow Light Snow
11:02 AM 26.6 °F 15.7 °F 15.8 °F 64% 29.93 in 2.0 mi West 12.7 mph - 0.00 in Snow Light Snow
11:14 AM 28.4 °F 20.4 °F 17.6 °F 64% 29.92 in 1.8 mi West 8.1 mph - 0.00 in Snow Light Snow
11:20 AM 26.6 °F 18.2 °F 17.6 °F 69% 29.92 in 2.0 mi West 8.1 mph - 0.00 in Snow Light Snow
11:34 AM 28.4 °F 20.4 °F 19.4 °F 69% 29.92 in 1.5 mi West 8.1 mph - 0.00 in Snow Light Snow
11:53 AM 28.9 °F 21.1 °F 21.0 °F 72% 29.90 in 2.0 mi WSW 8.1 mph - 0.00 in Snow Light Snow
12:08 PM 30.2 °F 19.8 °F 21.2 °F 69% 29.88 in 1.2 mi WSW 13.8 mph 18.4 mph 0.00 in Snow Light Snow
12:16 PM 32.0 °F 22.1 °F 24.8 °F 75% 29.87 in 3.0 mi WSW 13.8 mph - 0.00 in Snow Light Snow
12:23 PM 32.0 °F 21.2 °F 21.2 °F 64% 29.86 in 9.0 mi WSW 16.1 mph - 0.00 in   Mostly Cloudy
12:50 PM 32.0 °F 23.6 °F 19.4 °F 60% 29.85 in 10.0 mi West 10.4 mph 21.9 mph 0.00 in   Overcast
12:53 PM 32.0 °F 22.5 °F 19.0 °F 59% 29.85 in 9.0 mi West 12.7 mph - 0.00 in   Overcast
1:15 PM 30.2 °F 20.8 °F 17.6 °F 60% 29.84 in 10.0 mi WNW 11.5 mph 20.7 mph 0.00 in   Overcast
1:33 PM 28.4 °F 14.4 °F 17.6 °F 64% 29.84 in 0.8 mi WNW 23.0 mph 28.8 mph 0.00 in Snow Light Snow
1:39 PM 24.8 °F 12.9 °F 17.6 °F 74% 29.84 in 0.2 mi WNW 13.8 mph 28.8 mph 0.00 in Snow Heavy Snow
1:53 PM 27.0 °F 16.7 °F 19.9 °F 75% 29.83 in 0.5 mi WNW 11.5 mph - 0.00 in Snow Snow
2:02 PM 26.6 °F 17.5 °F 21.2 °F 80% 29.83 in 1.0 mi West 9.2 mph 17.3 mph 0.00 in Snow Light Snow
2:05 PM 28.4 °F 18.5 °F 21.2 °F 74% 29.83 in 2.0 mi West 11.5 mph - 0.00 in Snow Light Snow
2:13 PM 28.4 °F 19.1 °F 21.2 °F 74% 29.83 in 9.0 mi West 10.4 mph - 0.00 in   Overcast
2:23 PM 30.2 °F 20.8 °F 23.0 °F 75% 29.82 in 10.0 mi West 11.5 mph - 0.00 in   Scattered Clouds
2:53 PM 30.9 °F 19.1 °F 19.0 °F 61% 29.81 in 10.0 mi NW 18.4 mph 27.6 mph 0.00 in   Mostly Cloudy
3:53 PM 30.0 °F 19.5 °F 17.1 °F 59% 29.83 in 10.0 mi NW 13.8 mph - N/A   Partly Cloudy
4:53 PM 28.9 °F 19.2 °F 9.0 °F 43% 29.81 in 10.0 mi NW 11.5 mph 21.9 mph N/A   Clear
5:53 PM 27.0 °F 16.1 °F 5.0 °F 39% 29.83 in 10.0 mi NW 12.7 mph 23.0 mph N/A   Clear
6:53 PM 24.1 °F 14.4 °F 1.9 °F 38% 29.85 in 10.0 mi NW 9.2 mph - N/A   Clear
7:53 PM 21.9 °F 15.7 °F -0.9 °F 37% 29.87 in 10.0 mi WNW 4.6 mph - N/A   Clear
8:53 PM 17.1 °F - -0.0 °F 47% 29.89 in 10.0 mi Calm Calm - N/A   Clear
9:53 PM 12.0 °F - 1.0 °F 61% 29.91 in 10.0 mi Calm Calm - N/A   Clear
10:53 PM 7.0 °F 0.1 °F -2.0 °F 67% 29.91 in 10.0 mi North 3.5 mph - N/A   Clear
11:53 PM 8.1 °F -0.5 °F -2.0 °F 64% 29.90 in 10.0 mi North 4.6 mph - N/A   Clear